This is the latest recevied weather packets stored in our database for station/object OE3TEC-15. If no packets are shown the sender has not sent any weather packets the latest 10 day(s).
| Time | Temp. | Humidity | Pressure | Rain* | Wind** | Luminosity | Snow |
|---|---|---|---|---|---|---|---|
| 1777369473 | 17.78° C | 31% | 1021.8 hPa | 0 mm | - | 578 W/m² | - |
| 1777368873 | 17.78° C | 31% | 1021.9 hPa | 0 mm | - | 588 W/m² | - |
| 1777368268 | 17.78° C | 30% | 1022 hPa | 0 mm | - | 660 W/m² | - |
| 1777367661 | 17.22° C | 30% | 1022.2 hPa | 0 mm | - | 633 W/m² | - |
| 1777367052 | 17.22° C | 31% | 1022.2 hPa | 0 mm | - | 521 W/m² | - |
| 1777366445 | 16.67° C | 40% | 1022.2 hPa | 0 mm | - | 569 W/m² | - |
| 1777365839 | 16.11° C | 42% | 1022.1 hPa | 0 mm | - | 502 W/m² | - |
| 1777365231 | 15.56° C | 43% | 1022.4 hPa | 0 mm | - | 409 W/m² | - |
| 1777364625 | 15° C | 44% | 1022.4 hPa | 0 mm | - | 377 W/m² | - |
| 1777364024 | 14.44° C | 45% | 1022.4 hPa | 0 mm | - | 409 W/m² | - |
| 1777363418 | 13.89° C | 45% | 1022.4 hPa | 0 mm | - | 383 W/m² | - |
| 1777362818 | 13.89° C | 44% | 1022.5 hPa | 0 mm | - | 287 W/m² | - |
| 1777362213 | 13.33° C | 47% | 1022.4 hPa | 0 mm | - | 320 W/m² | - |
| 1777361606 | 13.33° C | 46% | 1022.4 hPa | 0 mm | - | 353 W/m² | - |
| 1777360999 | 12.78° C | 49% | 1022.4 hPa | 0 mm | - | 310 W/m² | - |
| 1777360393 | 11.67° C | 49% | 1022 hPa | 0 mm | - | 286 W/m² | - |
| 1777359784 | 11.11° C | 50% | 1022.4 hPa | 0 mm | - | 301 W/m² | - |
| 1777359177 | 10.56° C | 53% | 1022.4 hPa | 0 mm | - | 242 W/m² | - |
| 1777358570 | 10° C | 54% | 1022.2 hPa | 0 mm | - | 221 W/m² | - |
| 1777357962 | 10° C | 54% | 1022.4 hPa | 0 mm | - | 195 W/m² | - |
| 1777357355 | 9.44° C | 55% | 1022.2 hPa | 0 mm | - | 207 W/m² | - |
| 1777356748 | 8.33° C | 57% | 1022.1 hPa | 0 mm | - | 174 W/m² | - |
| 1777356141 | 7.78° C | 59% | 1022.5 hPa | 0 mm | - | 125 W/m² | - |
| 1777355533 | 7.78° C | 60% | 1022.4 hPa | 0 mm | - | 114 W/m² | - |
| 1777354926 | 7.22° C | 61% | 1022.1 hPa | 0 mm | - | 116 W/m² | - |
* Rain latest hour (hover to see other rain measurements)
** Current wind speed in m/s (hover to see current wind gust speed)